Regional Weather Roundup
Issued by NWS

Home | Current Version | Previous Version | Text Only | Print | Product List | Glossary Off
Versions: 1 2 3 4 5 6 7 8 9 10 11 12 13 14 15 16 17 18 19 20 21 22 23 24 25 26 27 28 29 30 31 32 33 34 35 36 37 38 39 40 41 42 43 44 45 46 47 48 49 50

832
ASUS43 KIND 040609
RWRIN

WEATHER ROUNDUP FOR INDIANA
NATIONAL WEATHER SERVICE INDIANAPOLIS IN
100 AM EST SUN DEC 04 2016

NOTE: "FAIR" INDICATES FEW OR NO CLOUDS BELOW 12,000 FEET WITH NO
SIGNIFICANT WEATHER AND/OR OBSTRUCTIONS TO VISIBILITY.

* - STATION DOES NOT REPORT WEATHER SUCH AS PRECIPITATION OR FOG.

+ - STATION NOT QUALITY CONTROLLED BY THE NATIONAL WEATHER SERVICE.
    USE DATA WITH CAUTION...ESPECIALLY DEWPOINT AND RELATIVE
    HUMIDITY OBSERVATIONS.

INZ001>003-010>013-019-020-040700-
NORTHWEST INDIANA

CITY           SKY/WX    TMP DP  RH WIND       PRES   REMARKS
GARY /AIRPORT/ PTCLDY    32  28  84 CALM      30.29S
KNOX *+        CLOUDY    32  16  51 S5        30.27F WCI  27
LA PORTE +     CLOUDY    33  33 100 CALM      30.27F
6HR MIN TEMP:  33; 6HR MAX TEMP:  35;

MICHIGAN CITY+ CLOUDY    32  27  80 CALM      30.28F
MONTICELLO +   CLOUDY    33  23  67 CALM      30.27F
6HR MIN TEMP:  33; 6HR MAX TEMP:  33;

RENSSELAER +     N/A     32  30  93 CALM      30.29S
VALPARAISO     CLOUDY    32  25  75 S3        30.27F
6HR MIN TEMP:  32; 6HR MAX TEMP:  34;


$$

LMZ046-743>745-040700-
SOUTHERN LAKE MICHIGAN

STATION/POSITION TIME  TEMP    WIND        PRES    WAVE
                       AIR SEA DIR/SP/G            HT
                 (UTC) (F)     (DEG/KT/KT) (MB)    (FT)
BURNS HARBOR     0540   33     200/  8/ 10 1025.4F
MICHIGAN CITY    0540   33     160/  6/  8   N/A

$$

INZ004-005-014>016-021>024-040700-
NORTH CENTRAL INDIANA

CITY           SKY/WX    TMP DP  RH WIND       PRES   REMARKS
GOSHEN         CLOUDY    32  25  75 SW3       30.27F
6HR MIN TEMP:  32; 6HR MAX TEMP:  34;

LOGANSPORT +   CLOUDY    32  28  86 CALM      30.28F
PERU/GRISSOM   CLOUDY    31  28  88 CALM      30.25F
6HR MIN TEMP:  31; 6HR MAX TEMP:  34;

ROCHESTER +    CLOUDY    32  32 100 CALM      30.27F
SOUTH BEND     CLOUDY    32  25  75 S3        30.27F
6HR MIN TEMP:  32; 6HR MAX TEMP:  33;

WARSAW +       CLOUDY    32  23  69 CALM      30.28S

$$

INZ006>009-017-018-025>027-040700-
NORTHEAST INDIANA

CITY           SKY/WX    TMP DP  RH WIND       PRES   REMARKS
ANGOLA *+      CLOUDY    34  28  80 CALM      30.26F
AUBURN +       CLOUDY    32  28  86 CALM      30.28S
FORT WAYNE     CLOUDY    32  27  81 CALM      30.27F
6HR MIN TEMP:  31; 6HR MAX TEMP:  34;

HUNTINGTON +   CLOUDY    32  27  82 CALM      30.27F
6HR MIN TEMP:  31; 6HR MAX TEMP:  33;

KENDALLVILLE + CLOUDY    32  28  86 CALM      30.27S

$$

INZ028-029-035-036-043>045-051>053-040700-
WEST CENTRAL INDIANA

CITY           SKY/WX    TMP DP  RH WIND       PRES   REMARKS
CRAWFORDSVL +  CLOUDY    29  29 100 CALM      30.26F
6HR MIN TEMP:  29; 6HR MAX TEMP:  32;

GREENCASTLE +  CLOUDY    32  32 100 CALM      30.26F
LAFAYETTE      CLOUDY    33  29  85 CALM      30.27F
6HR MIN TEMP:  33; 6HR MAX TEMP:  34;

TERRE HAUTE    CLOUDY    34  29  82 CALM      30.27F
6HR MIN TEMP:  32; 6HR MAX TEMP:  35;


$$

INZ030>032-037>040-046>048-054>057-064-065-040700-
CENTRAL INDIANA

CITY           SKY/WX    TMP DP  RH WIND       PRES   REMARKS
CP ATTERBURY + CLOUDY    32  30  93 CALM      30.27F
FISHERS *+     CLOUDY    30  30 100 CALM      30.26F
FRANKFORT +    CLOUDY    35  31  87 CALM      30.28F
6HR MIN TEMP:  34; 6HR MAX TEMP:  36;

GREENWOOD *+   CLOUDY    33  29  86 CALM      30.26F
6HR MIN TEMP:  32; 6HR MAX TEMP:  36;

INDIANAPOLIS   CLOUDY    34  27  75 E3        30.25F
6HR MIN TEMP:  32; 6HR MAX TEMP:  34;

-EAGLE CREEK   CLOUDY    33  27  78 CALM      30.26F
6HR MIN TEMP:  32; 6HR MAX TEMP:  35;

KOKOMO +       CLOUDY    31  28  89 NE3       30.28F
6HR MIN TEMP:  31; 6HR MAX TEMP:  35;

MARION +       CLOUDY    31  29  91 CALM      30.27F
MT COMFORT *+  CLOUDY    30  28  93 CALM      30.26F
SHELBYVILLE    CLOUDY    33  28  81 NE3       30.25F
6HR MIN TEMP:  31; 6HR MAX TEMP:  36;

ZIONSVILLE +   CLOUDY    30  29  95 CALM      30.26F
6HR MIN TEMP:  29; 6HR MAX TEMP:  33;


$$

INZ033-034-041-042-049-050-058-059-040700-
EAST CENTRAL INDIANA

CITY           SKY/WX    TMP DP  RH WIND       PRES   REMARKS
MUNCIE         CLOUDY    32  29  88 CALM      30.26F
6HR MIN TEMP:  31; 6HR MAX TEMP:  36;


$$

INZ060-061-067>069-081>083-085>088-040700-
SOUTHWEST INDIANA

CITY           SKY/WX    TMP DP  RH WIND       PRES   REMARKS
EVANSVILLE     CLOUDY    40  31  70 NE5       30.25S
6HR MIN TEMP:  40; 6HR MAX TEMP:  41;

HUNTINGBURG *+ CLOUDY    38  31  76 NE5       30.24F
6HR MIN TEMP:  37; 6HR MAX TEMP:  40;

WASHINGTON +   CLOUDY    36  32  85 CALM      30.25F
6HR MIN TEMP:  36; 6HR MAX TEMP:  39;


$$

INZ062-063-066-070>080-084-089>092-040700-
SOUTH CENTRAL AND SOUTHEAST INDIANA

CITY           SKY/WX    TMP DP  RH WIND       PRES   REMARKS
BLOOMINGTON    CLOUDY    35  28  75 CALM      30.25F
6HR MIN TEMP:  33; 6HR MAX TEMP:  36;

MADISON *+     CLOUDY    36  30  80 E3        30.27F
NORTH VERNON + CLOUDY   N/A N/A N/A E3        30.26F
SEYMOUR +      CLOUDY    36  30  80 CALM      30.26F

$$





USA.gov is the U.S. government's official web portal to all federal, state and local government web resources and services.